• In Uzbekistan
  • List of Countries
  • For 7 days
  • Water Temperature
  • Satellite Maps
  • Weather Map
  • Weather Widgets
  • user-avatar
    Login

    Hourly Weather Cajamar

    Today, 19 June, Tuesday

    Time Temperature Precipitation Wind Pressure Humidity
    00:00 +16°C° 0 mm 3 mps 703 mmHg 88%
    01:00 +16°C° 0 mm 2 mps 703 mmHg 89%
    02:00 +16°C° 0 mm 2 mps 703 mmHg 90%
    03:00 +15°C° 0 mm 2 mps 702 mmHg 90%
    04:00 +15°C° 0 mm 2 mps 702 mmHg 91%
    05:00 +15°C° 0 mm 2 mps 702 mmHg 92%
    06:00 +15°C° 0 mm 2 mps 702 mmHg 93%
    07:00 +16°C° 0 mm 2 mps 703 mmHg 89%
    08:00 +17°C° 0 mm 2 mps 703 mmHg 85%
    09:00 +17°C° 0 mm 2 mps 704 mmHg 81%
    10:00 +19°C° 0 mm 2 mps 704 mmHg 74%
    11:00 +21°C° 0 mm 2 mps 704 mmHg 67%
    12:00 +23°C° 0 mm 2 mps 704 mmHg 60%
    13:00 +24°C° 0 mm 2 mps 703 mmHg 59%
    14:00 +24°C° 0 mm 1 mps 703 mmHg 59%
    15:00 +24°C° 0 mm 1 mps 702 mmHg 59%
    16:00 +23°C° 0 mm 1 mps 702 mmHg 65%
    17:00 +21°C° 0 mm 1 mps 702 mmHg 71%
    18:00 +20°C° 0 mm 1 mps 702 mmHg 78%
    19:00 +19°C° 0 mm 1 mps 702 mmHg 82%
    20:00 +19°C° 0 mm 1 mps 702 mmHg 86%
    21:00 +18°C° 0 mm 1 mps 702 mmHg 90%
    22:00 +18°C° 0 mm 1 mps 702 mmHg 90%
    23:00 +18°C° 0 mm 1 mps 702 mmHg 91%

    Tomorrow, 20 June, Wednesday

    Time Temperature Precipitation Wind Pressure Humidity
    00:00 +16°C° 0 mm 1 mps 702 mmHg 92%
    01:00 +16°C° 0 mm 1 mps 702 mmHg 91%
    02:00 +16°C° 0 mm 1 mps 702 mmHg 91%
    03:00 +15°C° 0 mm 1 mps 701 mmHg 90%
    04:00 +15°C° 0 mm 1 mps 701 mmHg 90%
    05:00 +15°C° 0 mm 1 mps 701 mmHg 90%
    06:00 +15°C° 0 mm 1 mps 701 mmHg 89%
    07:00 +16°C° 0 mm 1 mps 702 mmHg 84%
    08:00 +19°C° 0 mm 1 mps 703 mmHg 79%
    09:00 +20°C° 0 mm 1 mps 703 mmHg 73%
    10:00 +22°C° 0 mm 1 mps 703 mmHg 68%
    11:00 +23°C° 0 mm 2 mps 703 mmHg 62%
    12:00 +25°C° 0 mm 2 mps 703 mmHg 56%
    13:00 +25°C° 0 mm 2 mps 703 mmHg 56%
    14:00 +25°C° 0 mm 2 mps 702 mmHg 55%
    15:00 +25°C° 0 mm 2 mps 702 mmHg 55%
    16:00 +24°C° 0 mm 1 mps 701 mmHg 62%
    17:00 +22°C° 0 mm 1 mps 701 mmHg 68%
    18:00 +20°C° 0 mm 1 mps 701 mmHg 75%
    19:00 +20°C° 0 mm 1 mps 701 mmHg 77%
    20:00 +17°C° 0 mm 0 mps 701 mmHg 79%
    21:00 +17°C° 0 mm 0 mps 701 mmHg 82%
    22:00 +18°C° 0 mm 1 mps 701 mmHg 83%
    23:00 +18°C° 0 mm 1 mps 701 mmHg 84%

    Day after tomorrow, 21 June, Thursday

    Time Temperature Precipitation Wind Pressure Humidity
    00:00 +18°C° 0 mm 1 mps 701 mmHg 85%
    01:00 +16°C° 0 mm 1 mps 700 mmHg 86%
    02:00 +16°C° 0 mm 1 mps 700 mmHg 87%
    03:00 +16°C° 0 mm 1 mps 700 mmHg 88%
    04:00 +16°C° 0 mm 1 mps 700 mmHg 88%
    05:00 +16°C° 0 mm 1 mps 700 mmHg 88%
    06:00 +15°C° 0 mm 1 mps 700 mmHg 89%
    07:00 +18°C° 0 mm 1 mps 700 mmHg 83%
    08:00 +19°C° 0 mm 1 mps 701 mmHg 77%
    09:00 +20°C° 0 mm 1 mps 702 mmHg 71%
    10:00 +21°C° 0 mm 2 mps 702 mmHg 64%
    11:00 +24°C° 0 mm 2 mps 702 mmHg 56%
    12:00 +25°C° 0 mm 3 mps 702 mmHg 48%
    13:00 +25°C° 0 mm 3 mps 701 mmHg 48%
    14:00 +25°C° 0 mm 3 mps 701 mmHg 49%
    15:00 +26°C° 0 mm 3 mps 700 mmHg 49%
    16:00 +24°C° 0 mm 2 mps 700 mmHg 56%
    17:00 +21°C° 0 mm 2 mps 700 mmHg 63%
    18:00 +21°C° 0 mm 1 mps 699 mmHg 70%
    19:00 +20°C° 0 mm 1 mps 700 mmHg 72%
    20:00 +20°C° 0 mm 1 mps 700 mmHg 74%
    21:00 +19°C° 0 mm 1 mps 700 mmHg 77%
    22:00 +19°C° 0 mm 1 mps 700 mmHg 78%
    23:00 +18°C° 0 mm 1 mps 700 mmHg 80%

    22 June, Friday

    Time Temperature Precipitation Wind Pressure Humidity
    00:00 +18°C° 0 mm 1 mps 700 mmHg 81%
    01:00 +18°C° 0 mm 1 mps 700 mmHg 83%
    02:00 +16°C° 0 mm 1 mps 699 mmHg 84%
    03:00 +16°C° 0 mm 1 mps 699 mmHg 85%
    04:00 +16°C° 0 mm 1 mps 699 mmHg 86%
    05:00 +16°C° 0 mm 1 mps 699 mmHg 86%
    06:00 +15°C° 0 mm 2 mps 699 mmHg 87%
    07:00 +17°C° 0 mm 2 mps 699 mmHg 82%
    08:00 +18°C° 0 mm 2 mps 700 mmHg 77%
    09:00 +19°C° 0 mm 2 mps 701 mmHg 72%
    10:00 +21°C° 0 mm 2 mps 701 mmHg 64%
    11:00 +22°C° 0 mm 3 mps 701 mmHg 57%
    12:00 +25°C° 0 mm 3 mps 701 mmHg 50%
    13:00 +25°C° 0 mm 3 mps 700 mmHg 48%
    14:00 +25°C° 0 mm 3 mps 700 mmHg 46%
    15:00 +25°C° 0 mm 2 mps 699 mmHg 44%
    16:00 +24°C° 0 mm 2 mps 699 mmHg 51%
    17:00 +22°C° 0 mm 1 mps 699 mmHg 57%
    18:00 +20°C° 0 mm 1 mps 699 mmHg 63%
    19:00 +20°C° 0 mm 1 mps 699 mmHg 65%
    20:00 +19°C° 0 mm 1 mps 699 mmHg 67%
    21:00 +18°C° 0 mm 1 mps 699 mmHg 68%
    22:00 +18°C° 0 mm 1 mps 699 mmHg 69%
    23:00 +18°C° 0 mm 1 mps 699 mmHg 70%

    23 June, Saturday

    Time Temperature Precipitation Wind Pressure Humidity
    00:00 +16°C° 0 mm 1 mps 699 mmHg 70%
    01:00 +16°C° 0 mm 1 mps 699 mmHg 71%
    02:00 +16°C° 0 mm 1 mps 698 mmHg 72%
    03:00 +16°C° 0 mm 1 mps 698 mmHg 73%
    04:00 +15°C° 0 mm 1 mps 698 mmHg 74%
    05:00 +15°C° 0 mm 1 mps 698 mmHg 75%
    06:00 +15°C° 0 mm 1 mps 698 mmHg 76%
    07:00 +18°C° 0 mm 1 mps 699 mmHg 71%
    08:00 +19°C° 0 mm 1 mps 699 mmHg 67%
    09:00 +21°C° 0 mm 1 mps 700 mmHg 62%
    10:00 +23°C° 0 mm 2 mps 700 mmHg 57%
    11:00 +24°C° 0 mm 3 mps 700 mmHg 52%
    12:00 +26°C° 0 mm 3 mps 699 mmHg 46%
    13:00 +26°C° 0 mm 3 mps 699 mmHg 46%
    14:00 +26°C° 0 mm 4 mps 698 mmHg 45%
    15:00 +27°C° 0 mm 4 mps 698 mmHg 45%
    16:00 +25°C° 0 mm 3 mps 698 mmHg 51%
    17:00 +23°C° 0 mm 2 mps 698 mmHg 58%
    18:00 +21°C° 0 mm 2 mps 697 mmHg 64%
    19:00 +20°C° 0 mm 2 mps 698 mmHg 66%
    20:00 +21°C° 0 mm 1 mps 698 mmHg 68%
    21:00 +20°C° 0 mm 1 mps 698 mmHg 71%
    22:00 +20°C° 0.1 mm 1 mps 698 mmHg 72%
    23:00 +20°C° 0.1 mm 1 mps 698 mmHg 74%

    24 June, Sunday

    Time Temperature Precipitation Wind Pressure Humidity
    00:00 +19°C° 0.1 mm 1 mps 698 mmHg 75%
    01:00 +19°C° 0 mm 1 mps 698 mmHg 77%
    02:00 +19°C° 0 mm 1 mps 698 mmHg 79%
    03:00 +18°C° 0 mm 1 mps 698 mmHg 81%
    04:00 +18°C° 0 mm 1 mps 698 mmHg 82%
    05:00 +18°C° 0 mm 1 mps 698 mmHg 83%
    06:00 +17°C° 0 mm 2 mps 698 mmHg 84%
    07:00 +18°C° 0 mm 2 mps 699 mmHg 79%
    08:00 +19°C° 0 mm 2 mps 699 mmHg 74%
    09:00 +21°C° 0 mm 2 mps 700 mmHg 70%
    10:00 +23°C° 0 mm 2 mps 700 mmHg 62%
    11:00 +25°C° 0 mm 3 mps 700 mmHg 55%
    12:00 +26°C° 0 mm 3 mps 700 mmHg 48%
    13:00 +26°C° 0 mm 3 mps 700 mmHg 47%
    14:00 +26°C° 0 mm 3 mps 699 mmHg 47%
    15:00 +26°C° 0 mm 3 mps 699 mmHg 47%
    16:00 +24°C° 0 mm 2 mps 699 mmHg 54%
    17:00 +23°C° 0 mm 1 mps 699 mmHg 60%
    18:00 +21°C° 0 mm 1 mps 699 mmHg 67%
    19:00 +21°C° 0 mm 1 mps 699 mmHg 70%
    20:00 +20°C° 0 mm 1 mps 699 mmHg 73%
    21:00 +19°C° 0 mm 1 mps 700 mmHg 76%
    22:00 +19°C° 0 mm 1 mps 700 mmHg 78%
    23:00 +18°C° 0 mm 1 mps 700 mmHg 81%
    Show more